Joplin, MO

7:46 AM CST on November 12, 2019 (GMT -0600)
Joplin Regional

Weather History for KJLN - September, 2019

Change the Weather History Date:

Tuesday, September 24, 2019

  Actual Average Record
Temperature  
Mean Temperature 70 °F 67 °F  
Max Temperature 75 °F 79 °F 90 °F (1911)
Min Temperature 64 °F 56 °F 31 °F (1989)
Degree Days  
Heating Degree Days 0 2  
Month to date heating degree days 0 19  
Since 1 July heating degree days 0 20  
Cooling Degree Days 5 5  
Month to date cooling degree days 334 191  
Year to date cooling degree days 1585 1618  
Growing Degree Days 20 (Base 50)    
Moisture  
Dew Point 64 °F    
Average Humidity 85    
Maximum Humidity 100    
Minimum Humidity 59    
Precipitation  
Precipitation 1.73 in 0.16 in 4.16 in (1993)
Month to date precipitation 3.86 3.98  
Year to date precipitation 52.75 34.95  
Sea Level Pressure  
Sea Level Pressure 29.93 in    
Wind  
Wind Speed 7 mph ()    
Max Wind Speed 17 mph    
Max Gust Speed 22 mph    
Visibility 7.7 miles    
Events Rain , Thunderstorm    
T = Trace of Precipitation, MM = Missing Value Source: Averaged Metar Reports

Daily Weather History Graph

Daily Weather History Graph

Search for Another Location

Airport or City:

Astronomy

Sep. 24, 2019 Rise Set
Actual Time 7:07 AM CDT 7:12 PM CDT
Civil Twilight 6:41 AM CDT 7:38 PM CDT
Nautical Twilight 6:11 AM CDT 8:08 PM CDT
Astronomical Twilight 5:40 AM CDT 8:38 PM CDT
Moon 2:01 AM CDT (9/24) 4:50 PM CDT (9/24)
Length of Visible Light 12h 56m
Length of Day
12h 04m
Waning Crescent, 23% of the Moon is Illuminated
Sep 24
Waning Crescent
Sep 28
New
Oct 5
First Quarter
Oct 13
Full
Oct 21
Last Quarter

Hourly Weather History & Observations

Time (CDT) Temp. Dew Point Humidity Pressure Visibility Wind Dir Wind Speed Gust Speed Precip Events Conditions
12:53 AM 68.0 °F 54.0 °F 61% 30.00 in 10.0 mi SSE 8.1 mph - N/A   Clear
1:53 AM 70.0 °F 55.0 °F 59% 29.99 in 10.0 mi SSE 8.1 mph - N/A   Partly Cloudy
2:53 AM 66.9 °F 55.9 °F 68% 29.98 in 10.0 mi SSE 6.9 mph - N/A   Clear
3:53 AM 64.9 °F 55.9 °F 73% 29.96 in 10.0 mi ESE 5.8 mph - N/A   Clear
4:53 AM 66.0 °F 55.9 °F 70% 29.96 in 10.0 mi SE 4.6 mph - N/A   Clear
5:53 AM 66.9 °F 55.9 °F 68% 29.96 in 10.0 mi SE 5.8 mph - N/A   Clear
6:53 AM 66.9 °F 57.0 °F 70% 29.96 in 10.0 mi ESE 9.2 mph - N/A   Clear
7:53 AM 69.1 °F 57.0 °F 65% 29.96 in 10.0 mi SE 6.9 mph - 0.00 in Rain Light Rain
8:19 AM 66.0 °F 60.1 °F 81% 29.98 in 2.5 mi SSE 5.8 mph - 0.09 in Rain Heavy Rain
8:29 AM 64.4 °F 62.6 °F 94% 29.98 in 1.0 mi ESE 9.2 mph - N/A Rain , Thunderstorm Heavy Rain
8:36 AM 64.9 °F 63.0 °F 93% 29.99 in 1.0 mi SSE 10.4 mph - 0.35 in Rain , Thunderstorm Heavy Thunderstorms and Rain
8:53 AM 64.9 °F 64.0 °F 97% 29.99 in 1.0 mi South 5.8 mph - 0.86 in Rain , Thunderstorm Heavy Thunderstorms and Rain
9:08 AM 64.9 °F 64.0 °F 97% 30.01 in 2.0 mi SE 6.9 mph - 0.24 in Rain , Thunderstorm Heavy Thunderstorms and Rain
9:10 AM 64.9 °F 64.0 °F 97% 30.01 in 2.0 mi SE 6.9 mph - 0.28 in Rain , Thunderstorm Heavy Thunderstorms and Rain
9:53 AM 66.9 °F 64.9 °F 93% 29.98 in 2.0 mi SSE 10.4 mph - 0.57 in Rain , Thunderstorm Heavy Thunderstorms and Rain
10:00 AM 66.9 °F 64.9 °F 93% 30.00 in 3.0 mi SSE 5.8 mph - N/A Rain , Thunderstorm Thunderstorms and Rain
10:53 AM 68.0 °F 66.9 °F 96% 29.98 in 3.0 mi ESE 6.9 mph - N/A Rain Rain
11:22 AM 68.0 °F 66.9 °F 96% 30.00 in 10.0 mi Variable 3.5 mph - 0.05 in Rain Rain
11:53 AM 69.1 °F 66.9 °F 93% 29.97 in 10.0 mi SSE 6.9 mph - 0.09 in   Overcast
12:53 PM 72.0 °F 69.1 °F 91% 29.94 in 10.0 mi South 15.0 mph - N/A   Scattered Clouds
1:53 PM 73.9 °F 69.1 °F 85% 29.92 in 10.0 mi South 11.5 mph - N/A   Mostly Cloudy
2:53 PM 75.0 °F 68.0 °F 79% 29.91 in 10.0 mi South 12.7 mph - N/A   Overcast
3:53 PM 75.9 °F 70.0 °F 82% 29.87 in 10.0 mi South 11.5 mph - 0.00 in   Mostly Cloudy
4:53 PM 73.9 °F 69.1 °F 85% 29.85 in 10.0 mi SSE 10.4 mph - N/A   Partly Cloudy
5:53 PM 73.9 °F 68.0 °F 82% 29.83 in 10.0 mi South 11.5 mph - N/A   Partly Cloudy
6:53 PM 73.0 °F 68.0 °F 84% 29.83 in 10.0 mi South 6.9 mph - N/A   Clear
7:53 PM 70.0 °F 68.0 °F 93% 29.82 in 10.0 mi SSE 3.5 mph - N/A   Clear
8:53 PM 69.1 °F 68.0 °F 96% 29.85 in 10.0 mi South 5.8 mph - N/A   Clear
9:53 PM 70.0 °F 69.1 °F 97% 29.83 in 10.0 mi SSE 5.8 mph - N/A   Clear
10:53 PM 70.0 °F 68.0 °F 93% 29.83 in 10.0 mi South 8.1 mph - N/A   Clear
11:53 PM 69.1 °F 68.0 °F 96% 29.81 in 10.0 mi South 9.2 mph - N/A   Clear